Weather History for KFDK - May, 2014

Change the Weather History Date:

Sunday, May 11, 2014

  Actual Average (KHGR) Record (KHGR)
Temperature  
Mean Temperature 68 °F -  
Max Temperature 80 °F 70 °F 88 °F (2005)
Min Temperature 55 °F 49 °F 43 °F (2008)
Cooling Degree Days 2    
Growing Degree Days 18 (Base 50)    
Moisture  
Dew Point 57 °F    
Average Humidity 84    
Maximum Humidity 100    
Minimum Humidity 37    
Precipitation  
Precipitation 0.00 in - - ()
Sea Level Pressure  
Sea Level Pressure 30.09 in    
Wind  
Wind Speed 2 mph (South)    
Max Wind Speed 12 mph    
Max Gust Speed -    
Visibility 9 miles    
Events      
Averages and records for this station are not official NWS values.
T = Trace of Precipitation, MM = Missing Value Source: NWS Daily Summary

Daily Weather History Graph

Daily Weather History Graph

Search for Another Location

Airport or City:

Trip Planner

Search our weather history database for the weather conditions in past years. The results will help you decide how hot, cold, wet, or windy it might be!

Date:

Astronomy

May. 11, 2014 Rise Set
Actual Time 5:59 AM EDT 8:12 PM EDT
Civil Twilight 5:29 AM EDT 8:42 PM EDT
Nautical Twilight 4:52 AM EDT 9:19 PM EDT
Astronomical Twilight 4:12 AM EDT 10:00 PM EDT
Moon 5:07 PM EDT (5/11) 4:02 AM EDT (5/11)
Length of Visible Light 15h 13m
Length of Day
14h 13m
Waxing Gibbous, 89% of the Moon is Illuminated
May 11
Waxing Gibbous
May 14
Full
May 21
Last Quarter
May 28
New
Jun 5
First Quarter

Hourly Weather History & Observations

Time (EDT) Temp. Heat Index Dew Point Humidity Pressure Visibility Wind Dir Wind Speed Gust Speed Precip Events Conditions
12:00 AM 60.8 °F - 60.8 °F 100% 29.99 in 10.0 mi Calm Calm - N/A   Clear
12:20 AM 60.8 °F - 60.8 °F 100% 29.99 in 10.0 mi Calm Calm - N/A   Clear
12:40 AM 59.0 °F - 59.0 °F 100% 30.02 in 10.0 mi Calm Calm - N/A   Scattered Clouds
1:00 AM 59.0 °F - 59.0 °F 100% 30.02 in 10.0 mi Calm Calm - N/A   Scattered Clouds
1:20 AM 59.0 °F - 59.0 °F 100% 30.03 in 2.5 mi Calm Calm - N/A   Scattered Clouds
1:40 AM 59.0 °F - 59.0 °F 100% 30.02 in 4.0 mi Calm Calm - N/A   Scattered Clouds
2:00 AM 59.0 °F - 59.0 °F 100% 30.02 in 7.0 mi South 3.5 mph - N/A   Scattered Clouds
2:20 AM 55.4 °F - 55.4 °F 100% 30.02 in 0.8 mi Calm Calm - N/A   Mist
2:40 AM 57.2 °F - 57.2 °F 100% 30.02 in 1.2 mi South 3.5 mph - N/A   Mist
3:00 AM 57.2 °F - 57.2 °F 100% 30.02 in 4.0 mi SSE 3.5 mph - N/A   Clear
3:20 AM 55.4 °F - 55.4 °F 100% 30.02 in 1.5 mi South 4.6 mph - N/A   Mist
3:40 AM 55.4 °F - 55.4 °F 100% 30.03 in 7.0 mi SE 3.5 mph - N/A   Clear
4:00 AM 57.2 °F - 57.2 °F 100% 30.04 in 10.0 mi SE 3.5 mph - N/A   Clear
4:20 AM 55.4 °F - 55.4 °F 100% 30.04 in 10.0 mi SSE 4.6 mph - N/A   Clear
4:40 AM 55.4 °F - 55.4 °F 100% 30.05 in 10.0 mi SE 4.6 mph - N/A   Clear
5:00 AM 55.4 °F - 55.4 °F 100% 30.05 in 10.0 mi SE 4.6 mph - N/A   Clear
5:20 AM 55.4 °F - 55.4 °F 100% 30.06 in 10.0 mi SE 4.6 mph - N/A   Clear
5:40 AM 55.4 °F - 55.4 °F 100% 30.07 in 10.0 mi SSE 4.6 mph - N/A   Clear
6:00 AM 55.4 °F - 55.4 °F 100% 30.08 in 10.0 mi SSE 3.5 mph - N/A   Clear
6:20 AM 55.4 °F - 55.4 °F 100% 30.09 in 10.0 mi Calm Calm - N/A   Clear
6:35 AM 55.4 °F - 55.4 °F 100% 30.10 in 10.0 mi Calm Calm - N/A   Clear
6:45 AM 55.4 °F - 55.4 °F 100% 30.10 in 10.0 mi Calm Calm - N/A   Clear
7:47 AM 62.6 °F - 62.6 °F 100% 30.12 in 10.0 mi Calm Calm - N/A   Clear
8:45 AM 68.0 °F - 57.2 °F 68% 30.15 in 10.0 mi NW 3.5 mph - N/A   Clear
9:55 AM 71.6 °F - 59.0 °F 64% 30.17 in 10.0 mi WSW 8.1 mph - N/A   Clear
10:47 AM 73.4 °F - 50.0 °F 44% 30.17 in 10.0 mi NNW 8.1 mph - N/A   Clear
11:45 AM 73.4 °F - 51.8 °F 47% 30.18 in 10.0 mi WNW 10.4 mph - N/A   Clear
12:50 PM 75.2 °F - 53.6 °F 47% - 10.0 mi NW 8.1 mph - N/A   Clear
1:47 PM 75.2 °F - 53.6 °F 47% 30.15 in 10.0 mi North 4.6 mph - N/A   Clear
2:55 PM 78.8 °F - 51.8 °F 39% 30.14 in 10.0 mi West 11.5 mph - N/A   Clear
3:45 PM 80.6 °F 80.3 °F 53.6 °F 39% 30.12 in 10.0 mi West 8.1 mph - N/A   Clear
4:50 PM 80.6 °F - 51.8 °F 37% 30.10 in 10.0 mi SSW 5.8 mph - N/A   Clear
5:50 PM 80.6 °F - 51.8 °F 37% 30.10 in 10.0 mi Calm Calm - N/A   Clear
6:45 PM 78.8 °F - 53.6 °F 42% 30.09 in 10.0 mi Calm Calm - N/A   Clear
7:45 PM 73.4 °F - 53.6 °F 50% 30.10 in 10.0 mi Calm Calm - N/A   Clear
8:40 PM 64.4 °F - 59.0 °F 83% 30.11 in 10.0 mi Calm Calm - N/A   Clear
9:00 PM 64.4 °F - 60.8 °F 88% 30.12 in 10.0 mi Calm Calm - N/A   Mostly Cloudy
9:20 PM 62.6 °F - 59.0 °F 88% 30.12 in 10.0 mi Calm Calm - N/A   Overcast
9:40 PM 64.4 °F - 59.0 °F 83% 30.13 in 10.0 mi Calm Calm - N/A   Overcast
10:00 PM 62.6 °F - 60.8 °F 94% 30.13 in 10.0 mi Calm Calm - N/A   Scattered Clouds
10:20 PM 60.8 °F - 60.8 °F 100% 30.13 in 10.0 mi Calm Calm - N/A   Clear
10:40 PM 60.8 °F - 60.8 °F 100% 30.14 in 10.0 mi Calm Calm - N/A   Clear
11:00 PM 60.8 °F - 60.8 °F 100% 30.14 in 10.0 mi Calm Calm - N/A   Clear
11:20 PM 59.0 °F - 59.0 °F 100% 30.14 in 10.0 mi Calm Calm - N/A   Clear
11:40 PM 59.0 °F - 59.0 °F 100% 30.14 in 10.0 mi Calm Calm - N/A   Clear